TimeEST,TemperatureF,Dew PointF,Humidity,Sea Level PressureIn,VisibilityMPH,Wind Direction,Wind SpeedMPH,Gust SpeedMPH,PrecipitationIn,Events,Conditions,WindDirDegrees,DateUTC
12:27 AM,44.6,32.0,61,30.45,10.0,North,6.9,-,N/A,,Overcast,360,2013-11-21 05:27:00
12:52 AM,46.0,32.0,58,30.44,10.0,NNE,8.1,-,N/A,,Overcast,30,2013-11-21 05:52:00
1:52 AM,45.0,32.0,60,30.46,10.0,NNE,5.8,-,N/A,,Overcast,30,2013-11-21 06:52:00
2:52 AM,45.0,32.0,60,30.46,10.0,NNE,6.9,-,N/A,,Overcast,30,2013-11-21 07:52:00
3:52 AM,45.0,32.0,60,30.45,10.0,NNE,8.1,-,N/A,,Overcast,30,2013-11-21 08:52:00
4:52 AM,44.1,33.1,65,30.45,10.0,North,8.1,-,N/A,,Overcast,10,2013-11-21 09:52:00
5:42 AM,44.6,33.8,66,30.45,10.0,NNE,6.9,-,N/A,,Overcast,20,2013-11-21 10:42:00
5:52 AM,44.1,34.0,68,30.45,10.0,NNE,6.9,-,N/A,,Overcast,20,2013-11-21 10:52:00
6:34 AM,42.8,33.8,70,30.46,10.0,NNE,6.9,-,N/A,,Overcast,20,2013-11-21 11:34:00
6:52 AM,44.1,35.1,71,30.47,10.0,North,8.1,-,N/A,,Overcast,360,2013-11-21 11:52:00
7:52 AM,45.0,36.0,71,30.48,10.0,NNE,8.1,-,N/A,,Overcast,20,2013-11-21 12:52:00
8:52 AM,46.0,36.0,68,30.49,10.0,North,10.4,-,N/A,,Overcast,10,2013-11-21 13:52:00
9:52 AM,48.0,37.0,66,30.49,10.0,North,6.9,-,N/A,,Overcast,10,2013-11-21 14:52:00
10:52 AM,48.9,37.9,66,30.49,10.0,NNE,9.2,-,N/A,,Overcast,30,2013-11-21 15:52:00
11:52 AM,51.1,39.0,63,30.46,10.0,NNE,6.9,-,N/A,,Overcast,30,2013-11-21 16:52:00
12:52 PM,52.0,41.0,66,30.44,10.0,NNE,6.9,-,N/A,,Overcast,30,2013-11-21 17:52:00
1:49 PM,55.4,42.8,63,30.41,10.0,ENE,5.8,-,N/A,,Overcast,60,2013-11-21 18:49:00
1:52 PM,55.0,42.1,62,30.41,10.0,NE,6.9,-,N/A,,Overcast,50,2013-11-21 18:52:00
2:52 PM,57.0,42.1,57,30.38,10.0,Variable,3.5,-,N/A,,Mostly Cloudy,0,2013-11-21 19:52:00
3:52 PM,57.0,42.1,57,30.39,10.0,NNE,5.8,-,N/A,,Mostly Cloudy,20,2013-11-21 20:52:00
4:52 PM,55.9,43.0,62,30.40,10.0,North,5.8,-,N/A,,Mostly Cloudy,10,2013-11-21 21:52:00
5:52 PM,53.1,42.1,66,30.40,10.0,NNW,5.8,-,N/A,,Mostly Cloudy,340,2013-11-21 22:52:00
6:52 PM,53.1,44.1,71,30.40,10.0,North,3.5,-,N/A,,Overcast,350,2013-11-21 23:52:00
7:52 PM,53.1,43.0,69,30.41,10.0,North,5.8,-,N/A,,Mostly Cloudy,350,2013-11-22 00:52:00
8:52 PM,53.1,43.0,69,30.42,10.0,North,4.6,-,N/A,,Overcast,360,2013-11-22 01:52:00
9:52 PM,52.0,44.1,74,30.42,10.0,NW,5.8,-,N/A,,Overcast,320,2013-11-22 02:52:00
10:52 PM,52.0,44.1,74,30.40,10.0,North,6.9,-,N/A,,Overcast,10,2013-11-22 03:52:00
11:52 PM,52.0,44.1,74,30.40,10.0,North,4.6,-,N/A,,Overcast,360,2013-11-22 04:52:00